Time,TemperatureF,DewpointF,PressureIn,WindDirection,WindDirectionDegrees,WindSpeedMPH,WindSpeedGustMPH,Humidity,HourlyPrecipIn,Conditions,Clouds,dailyrainin,SoftwareType,DateUTC
2015-03-06 00:04:00,3.6,-5.9,30.40,South,172,1.0,1.0,64,0.00,,,0.00,Wunderground v.1.15,2015-03-06 05:04:00,
2015-03-06 00:10:00,3.5,-6.0,30.40,South,172,1.0,1.0,64,0.00,,,0.00,Wunderground v.1.15,2015-03-06 05:10:00,
2015-03-06 00:15:00,3.5,-6.3,30.40,South,172,0.0,1.0,63,0.00,,,0.00,Wunderground v.1.15,2015-03-06 05:15:00,
2015-03-06 00:21:00,3.3,-6.2,30.40,South,172,0.0,0.0,64,0.00,,,0.00,Wunderground v.1.15,2015-03-06 05:21:00,
2015-03-06 00:27:00,3.1,-6.3,30.41,South,172,0.0,1.0,64,0.00,,,0.00,Wunderground v.1.15,2015-03-06 05:27:00,
2015-03-06 00:33:00,3.1,-6.7,30.42,South,172,0.0,1.0,63,0.00,,,0.00,Wunderground v.1.15,2015-03-06 05:33:00,
2015-03-06 00:38:00,2.9,-6.9,30.42,South,172,0.0,1.0,63,0.00,,,0.00,Wunderground v.1.15,2015-03-06 05:38:00,
2015-03-06 00:44:00,2.5,-7.2,30.42,South,172,0.0,0.0,63,0.00,,,0.00,Wunderground v.1.15,2015-03-06 05:44:00,
2015-03-06 00:50:00,2.2,-7.2,30.42,South,172,0.0,0.0,64,0.00,,,0.00,Wunderground v.1.15,2015-03-06 05:50:00,
2015-03-06 00:56:00,1.9,-7.2,30.43,South,172,0.0,0.0,65,0.00,,,0.00,Wunderground v.1.15,2015-03-06 05:56:00,
2015-03-06 01:01:00,1.7,-7.0,30.43,South,172,0.0,0.0,66,0.00,,,0.00,Wunderground v.1.15,2015-03-06 06:01:00,
2015-03-06 01:07:00,1.6,-7.5,30.43,South,172,0.0,0.0,65,0.00,,,0.00,Wunderground v.1.15,2015-03-06 06:07:00,
2015-03-06 01:13:00,1.4,-7.3,30.44,South,172,0.0,0.0,66,0.00,,,0.00,Wunderground v.1.15,2015-03-06 06:13:00,
2015-03-06 01:18:00,1.2,-7.2,30.44,South,172,0.0,0.0,67,0.00,,,0.00,Wunderground v.1.15,2015-03-06 06:18:00,
2015-03-06 01:24:00,1.0,-7.1,30.44,South,172,0.0,0.0,68,0.00,,,0.00,Wunderground v.1.15,2015-03-06 06:24:00,
2015-03-06 01:30:00,0.7,-7.4,30.44,South,172,0.0,0.0,68,0.00,,,0.00,Wunderground v.1.15,2015-03-06 06:30:00,
2015-03-06 01:36:00,0.7,-7.4,30.44,South,172,0.0,1.0,68,0.00,,,0.00,Wunderground v.1.15,2015-03-06 06:36:00,
2015-03-06 01:41:00,0.5,-7.3,30.45,South,172,0.0,0.0,69,0.00,,,0.00,Wunderground v.1.15,2015-03-06 06:41:00,
2015-03-06 01:47:00,0.1,-7.7,30.44,South,172,0.0,0.0,69,0.00,,,0.00,Wunderground v.1.15,2015-03-06 06:47:00,
2015-03-06 01:53:00,-0.2,-8.0,30.45,South,172,0.0,0.0,69,0.00,,,0.00,Wunderground v.1.15,2015-03-06 06:53:00,
2015-03-06 01:59:00,-0.4,-7.9,30.45,South,172,0.0,0.0,70,0.00,,,0.00,Wunderground v.1.15,2015-03-06 06:59:00,
2015-03-06 02:04:00,-0.5,-8.0,30.45,South,172,0.0,0.0,70,0.00,,,0.00,Wunderground v.1.15,2015-03-06 07:04:00,
2015-03-06 02:09:00,-0.6,-7.8,30.45,South,172,0.0,1.0,71,0.00,,,0.00,Wunderground v.1.15,2015-03-06 07:09:00,
2015-03-06 02:14:00,-0.5,-8.0,30.45,South,172,0.0,0.0,70,0.00,,,0.00,Wunderground v.1.15,2015-03-06 07:14:00,
2015-03-06 02:19:00,-0.7,-8.1,30.45,South,172,0.0,0.0,70,0.00,,,0.00,Wunderground v.1.15,2015-03-06 07:19:00,
2015-03-06 02:24:00,-0.9,-8.0,30.45,South,172,0.0,0.0,71,0.00,,,0.00,Wunderground v.1.15,2015-03-06 07:24:00,
2015-03-06 02:29:00,-1.1,-8.2,30.45,South,172,1.0,1.0,71,0.00,,,0.00,Wunderground v.1.15,2015-03-06 07:29:00,
2015-03-06 02:34:00,-1.1,-8.0,30.45,South,172,0.0,0.0,72,0.00,,,0.00,Wunderground v.1.15,2015-03-06 07:34:00,
2015-03-06 02:39:00,-0.9,-8.0,30.45,South,172,0.0,4.0,71,0.00,,,0.00,Wunderground v.1.15,2015-03-06 07:39:00,
2015-03-06 02:44:00,-1.3,-8.4,30.45,South,172,0.0,1.0,71,0.00,,,0.00,Wunderground v.1.15,2015-03-06 07:44:00,
2015-03-06 02:49:00,-1.9,-9.0,30.45,South,172,0.0,1.0,71,0.00,,,0.00,Wunderground v.1.15,2015-03-06 07:49:00,